Simultaneous Nadir Overpasses (SNOs) Predictions

Prediction of SNOs between GOES-16 and AQUA Satellite Orbit:

Table of predicted SNOs for the next 14.0 days since TLE Epoch: 1/27/2024
Index Date Time (GOES-16) GOES-16 Lat,Lon AQUA Lat,Lon Distance(km) Time Diff (sec)
1 01/27/2024 07:20:17 -0.05, -75.21 0.84, -79.35 471.30 80
2 01/29/2024 07:04:49 -0.04, -75.22 0.01, -75.58 39.88 80
3 01/31/2024 06:46:39 -0.04, -75.24 -0.75, -71.78 392.69 80
4 01/31/2024 19:07:11 0.04, -75.24 -0.30, -76.76 172.73 80
5 02/02/2024 18:54:22 0.04, -75.27 0.53, -72.97 260.82 80
6 02/03/2024 07:14:45 -0.04, -75.28 0.52, -77.91 299.38 80
7 02/05/2024 06:56:34 -0.03, -75.30 -0.31, -74.13 134.71 80
8 02/05/2024 19:17:06 0.03, -75.30 -0.76, -79.09 430.81 80
9 02/07/2024 19:04:13 -0.01, -75.33 0.01, -75.29 5.15 80
10 02/09/2024 18:48:40 -0.01, -75.36 0.84, -71.49 440.26 80
